Regional Weather Roundup
Issued by NWS Sioux Falls, SD

Home | Current Version | Previous Version | Text Only | Print | Product List | Glossary Off
Versions: 1 2 3 4 5 6 7 8 9 10 11 12 13 14 15 16 17 18 19 20 21 22 23 24 25 26 27 28 29 30 31 32 33 34 35 36 37 38 39 40 41 42 43 44 45 46 47 48 49 50

000
ASUS43 KFSD 220302
RWRFSD

WEATHER ROUNDUP FOR SE SOUTH DAKOTA/SW MINNESOTA/NW IOWA
NATIONAL WEATHER SERVICE SIOUX FALLS SD
900 PM CST TUE FEB 21 2017

NOTE: "FAIR" INDICATES FEW OR NO CLOUDS BELOW 12,000 FEET WITH NO
SIGNIFICANT WEATHER AND OR OBSTRUCTIONS TO VISIBILITY.


SDZ038>040-050-052>070-220400-
SOUTHEAST SOUTH DAKOTA

CITY           SKY/WX    TMP DP  RH WIND       PRES   REMARKS
BROOKINGS      CLEAR     45  39  79 SE6       29.67F
CHAMBERLAIN    CLEAR     48  38  67 S5        29.63F HAZE
HURON          CLOUDY    50  37  61 SE6       29.63S
MADISON        FAIR      45  43  93 SE3       29.67F
MITCHELL       CLEAR     50  38  63 S10       29.64F
SIOUX FALLS    CLEAR     42  37  82 CALM      29.68F
WINNER         FAIR      56  33  42 SW10      29.67R
YANKTON        CLEAR     54  36  50 S5        29.67F
$$

MNZ071-072-080-081-089-090-097-098-220400-
SOUTHWEST MINNESOTA

CITY           SKY/WX    TMP DP  RH WIND       PRES   REMARKS
FAIRMONT       CLEAR     50  43  77 SW8       29.73S
JACKSON        CLEAR     46  39  76 S8        29.72S
LUVERNE        CLEAR     37  36  93 CALM      29.69F
MARSHALL       CLEAR     47  40  76 W3        29.69F
MONTEVIDEO     CLEAR     45  41  87 S3        29.69F
PIPESTONE      CLEAR     52  36  54 S5        29.69S
REDWOOD FALLS  CLEAR     46  40  79 S8        29.69S
TRACY          CLEAR     49  41  74 SW9       29.70S
WINDOM         CLEAR     45  41  87 CALM      29.71R
WORTHINGTON    CLEAR     48  41  76 S8        29.71S
$$

IAZ001>003-012>014-020>022-031-032-NEZ013-014-SDZ071-220400-
NORTHWEST IOWA

CITY           SKY/WX    TMP DP  RH WIND       PRES   REMARKS
CHEROKEE       CLEAR     49  38  66 S6        29.73F
DENISON        CLEAR     54  39  58 S13G20    29.75S
ESTHERVILLE    CLEAR     46  42  86 SW9       29.71S
LE MARS        CLEAR     50  37  62 S8        29.72S
ORANGE CITY    CLEAR     50  39  66 S8        29.71F
SHELDON        CLEAR     52  41  66 S12       29.69F
SIOUX CITY     CLEAR     52  37  56 E6        29.72F
SPENCER        CLEAR     48  40  73 S12       29.72S
STORM LAKE     CLEAR     46  39  76 S9        29.74F
$$

ABBREVIATIONS USED IN REMARKS
   TC - TEMPERATURE IN CELSIUS
  WCI - WIND CHILL INDEX
   HX - HEAT INDEX
  VSB - VISIBILITY




USA.gov is the U.S. government's official web portal to all federal, state and local government web resources and services.